GW0571 Weather Reports


Display with metric or nautical units.
time (UTC)temp
F
wind
direction
speed
MPH
gust
MPH
rain 1hr
in
rain 24hr
in
rain mn
in
humidity
%
barometer
mb
20260903135613 68 212 0.0 5.0 0.00 0.15 0.15 96 1015.3
20260903135112 68 245 2.0 3.0 0.00 0.15 0.15 96 1015.2
20260903134611 68 186 1.0 6.0 0.00 0.15 0.15 96 1015.3
20260903134107 68 226 3.0 5.0 0.00 0.15 0.15 96 1015.1
20260903133605 68 222 3.0 7.0 0.00 0.15 0.15 96 1015.0
20260903133101 68 260 3.0 5.0 0.00 0.15 0.15 96 1015.0
20260903132556 68 254 2.0 6.0 0.00 0.15 0.15 96 1014.9
20260903132050 68 246 4.0 6.0 0.00 0.15 0.15 96 1014.9
20260903131549 68 245 5.0 6.0 0.00 0.15 0.15 96 1015.2
20260903131044 68 226 3.0 5.0 0.00 0.15 0.15 96 1015.2
20260903130544 68 225 2.0 6.0 0.00 0.15 0.15 96 1015.3
20260903130039 68 252 4.0 6.0 0.00 0.15 0.15 96 1015.3
20260903125537 67 145 3.0 4.0 0.00 0.15 0.15 96 1015.3
20260903125033 67 253 2.0 3.0 0.00 0.15 0.15 96 1015.3
20260903124532 67 253 3.0 6.0 0.00 0.15 0.15 96 1015.3
20260903124027 67 253 3.0 4.0 0.00 0.15 0.15 96 1015.4
20260903123521 67 217 2.0 4.0 0.00 0.15 0.15 96 1015.4
20260903123020 67 174 1.0 3.0 0.00 0.15 0.15 96 1015.3
20260903122520 67 259 2.0 3.0 0.00 0.15 0.15 96 1015.3
20260903122019 66 217 0.0 3.0 0.00 0.15 0.15 96 1015.1
20260903121514 66 226 1.0 2.0 0.00 0.15 0.15 96 1015.1
20260903121010 66 215 0.0 3.0 0.00 0.15 0.15 96 1015.0
20260903120508 66 224 0.0 2.0 0.00 0.15 0.15 96 1014.9
20260903120003 66 240 0.0 2.0 0.00 0.15 0.15 96 1015.0
20260903115501 66 180 0.0 2.0 0.00 0.15 0.15 96 1015.0
20260903114956 65 89 0.0 2.0 0.00 0.15 0.15 96 1014.9
20260903114451 65 338 0.0 2.0 0.00 0.15 0.15 96 1014.9
20260903113947 64 141 0.0 1.0 0.00 0.15 0.15 96 1014.9
20260903113442 64 246 0.0 2.0 0.02 0.15 0.15 96 1014.9
20260903112938 64 236 0.0 2.0 0.02 0.15 0.15 96 1014.9
20260903112433 64 245 0.0 3.0 0.02 0.15 0.15 96 1014.7
20260903111932 64 240 0.0 2.0 0.00 0.15 0.15 96 1014.4
20260903111427 64 219 0.0 2.0 0.00 0.15 0.15 96 1014.6
20260903110924 64 206 0.0 2.0 0.00 0.15 0.15 96 1014.7
20260903110419 64 151 0.0 1.0 0.00 0.15 0.15 96 1014.6
20260903105914 64 177 0.0 1.0 0.00 0.15 0.15 96 1014.2
20260903105409 64 260 0.0 0.0 0.00 0.15 0.15 96 1014.4
20260903104908 64 233 0.0 1.0 0.00 0.15 0.15 96 1014.4
20260903104403 64 222 0.0 2.0 0.00 0.15 0.15 96 1014.8
20260903103900 64 209 2.0 3.0 0.00 0.15 0.15 96 1014.6
20260903103355 64 225 0.0 2.0 0.00 0.15 0.15 96 1014.6
20260903102850 64 129 0.0 1.0 0.00 0.15 0.15 96 1014.7
20260903102345 64 212 0.0 1.0 0.00 0.15 0.15 96 1014.6
20260903101844 64 316 0.0 1.0 0.00 0.15 0.15 96 1014.7
20260903101334 64 50 0.0 1.0 0.00 0.15 0.15 96 1014.6
20260903100830 64 89 0.0 1.0 0.00 0.15 0.15 96 1014.6
20260903100330 64 240 0.0 1.0 0.00 0.15 0.15 96 1014.9
20260903095826 64 159 0.0 2.0 0.00 0.15 0.15 96 1014.8
20260903095321 64 265 0.0 1.0 0.00 0.15 0.15 96 1014.9
20260903094816 64 230 0.0 2.0 0.00 0.15 0.15 96 1014.8
20260903094311 64 226 0.0 2.0 0.00 0.15 0.15 96 1014.7
20260903093807 64 233 1.0 2.0 0.00 0.15 0.15 96 1014.9
20260903093301 64 130 1.0 3.0 0.00 0.15 0.15 96 1014.8
20260903092756 64 166 0.0 3.0 0.00 0.15 0.15 96 1014.7
20260903092251 64 267 1.0 2.0 0.00 0.15 0.15 96 1014.9
20260903091750 64 269 0.0 2.0 0.00 0.15 0.15 96 1015.1
20260903091244 64 203 1.0 2.0 0.02 0.15 0.15 96 1015.1
20260903090740 64 235 0.0 1.0 0.02 0.15 0.15 96 1015.0
20260903090239 64 325 0.0 2.0 0.00 0.14 0.14 96 1015.0
20260903085737 64 335 0.0 2.0 0.00 0.14 0.14 96 1014.9
20260903085233 64 117 1.0 4.0 0.00 0.14 0.14 96 1014.8
20260903084730 64 237 0.0 2.0 0.00 0.14 0.14 96 1014.6
20260903084226 64 202 0.0 1.0 0.00 0.14 0.14 96 1014.6
20260903083721 64 186 0.0 1.0 0.00 0.14 0.14 96 1014.4
20260903083221 64 322 0.0 1.0 0.00 0.14 0.14 96 1014.3
20260903082714 64 150 0.0 2.0 0.00 0.14 0.14 96 1014.8
20260903082211 64 142 0.0 1.0 0.00 0.14 0.14 96 1014.7
20260903081710 64 129 0.0 1.0 0.00 0.14 0.14 96 1014.6
20260903081206 64 315 0.0 2.0 0.00 0.14 0.14 96 1014.8
20260903080703 64 214 0.0 3.0 0.00 0.14 0.14 96 1015.0
20260903080200 64 227 1.0 2.0 0.05 0.14 0.14 96 1014.6
20260903075659 64 217 0.0 1.0 0.05 0.14 0.14 96 1014.6
20260903075154 64 142 0.0 1.0 0.00 0.13 0.13 96 1014.7
20260903074653 64 326 0.0 1.0 0.00 0.13 0.13 96 1014.9
20260903074149 64 230 0.0 1.0 0.00 0.13 0.13 96 1014.7
20260903073644 64 194 0.0 1.0 0.00 0.13 0.13 96 1014.8
20260903073139 64 193 0.0 1.0 0.00 0.13 0.13 96 1015.2
20260903072634 64 321 1.0 1.0 0.00 0.13 0.13 96 1015.0
20260903072131 64 230 0.0 0.0 0.00 0.13 0.13 96 1014.7
20260903071627 64 186 0.0 1.0 0.00 0.13 0.13 96 1014.6
20260903071123 64 246 2.0 2.0 0.00 0.13 0.13 96 1014.9
20260903070622 64 329 0.0 1.0 0.00 0.13 0.13 96 1014.9
20260903070118 64 343 0.0 2.0 0.00 0.13 0.13 96 1014.8
20260903065618 64 37 0.0 2.0 0.00 0.13 0.13 96 1014.9
20260903065118 64 209 0.0 4.0 0.00 0.13 0.13 96 1015.1
20260903064612 64 154 3.0 4.0 0.00 0.13 0.13 96 1015.2
20260903064107 64 160 1.0 6.0 0.00 0.13 0.13 96 1014.4
20260903063603 64 219 1.0 2.0 0.00 0.13 0.13 96 1014.9
20260903063058 64 219 1.0 2.0 0.00 0.13 0.13 96 1014.9
20260903062553 64 315 0.0 0.0 0.00 0.13 0.13 96 1015.3
20260903062049 64 315 0.0 2.0 0.00 0.13 0.13 96 1015.2
20260903061543 64 148 0.0 2.0 0.00 0.13 0.13 96 1015.2
20260903061038 64 212 0.0 1.0 0.00 0.13 0.13 96 1015.2
20260903060537 64 230 0.0 1.0 0.00 0.13 0.13 96 1015.6
20260903060033 64 230 0.0 0.0 0.00 0.13 0.13 96 1015.7
20260903055530 64 212 0.0 1.0 0.00 0.13 0.13 96 1015.8
20260903055029 64 309 0.0 0.0 0.00 0.13 0.13 96 1015.5
20260903054524 64 17 0.0 1.0 0.00 0.13 0.13 96 1015.5
20260903054020 64 292 1.0 5.0 0.00 0.13 0.13 96 1015.3
20260903053520 64 142 0.0 3.0 0.00 0.13 0.13 96 1015.1
20260903053017 64 240 0.0 5.0 0.00 0.13 0.13 96
20260903052512 65 234 2.0 4.0 0.00 0.13 0.13 96
20260903052008 65 116 0.0 3.0 0.00 0.13 0.13 96
20260903051502 65 190 3.0 7.0 0.00 0.13 0.13 96
20260903050958 65 249 1.0 7.0 0.00 0.13 0.13 96
20260903050456 65 150 2.0 4.0 0.02 0.13 0.13 96
20260903045951 65 243 1.0 6.0 0.02 0.13 0.13 96
20260903045447 65 220 0.0 5.0 0.02 0.13 0.13 96
20260903044943 65 304 2.0 7.0 0.07 0.13 0.13 96
20260903044439 65 212 3.0 7.0 0.14 0.12 0.12 96
20260903043935 65 247 3.0 6.0 0.14 0.12 0.12 96
20260903043430 65 89 0.0 5.0 0.14 0.11 0.11 96
20260903042928 65 205 3.0 6.0 0.17 0.09 0.09 96
20260903042424 65 229 1.0 8.0 0.24 0.08 0.08 96
20260903041920 65 265 0.0 5.0 0.24 0.06 0.06 96
20260903041416 65 174 3.0 5.0 0.19 0.04 0.04 96
20260903040912 65 169 2.0 5.0 0.12 0.02 0.02 96
20260903040411 66 272 1.0 5.0 0.17 0.00 0.00 96
20260903035907 66 175 2.0 6.0 0.26 0.91 0.91 96
20260903035402 66 290 2.0 8.0 0.17 0.89 0.89 96
20260903034857 66 288 4.0 14.0 0.07 0.87 0.87 96
20260903034352 66 265 4.0 10.0 0.02 0.86 0.86 96
20260903033847 66 258 1.0 3.0 0.05 0.86 0.86 96
20260903033342 66 208 2.0 3.0 0.09 0.85 0.85 96
20260903032842 67 168 3.0 5.0 0.12 0.85 0.85 96
20260903032338 67 214 1.0 3.0 0.14 0.83 0.83 96
20260903031828 67 224 3.0 5.0 0.17 0.83 0.83 96
20260903031327 67 225 2.0 7.0 0.14 0.81 0.81 96
20260903030823 67 199 3.0 5.0 0.14 0.80 0.80 96
20260903030319 67 244 2.0 4.0 0.24 0.78 0.78 96
20260903025814 67 233 2.0 7.0 0.26 0.77 0.77 96
20260903025310 67 231 2.0 4.0 0.26 0.75 0.75 96
20260903024804 66 49 0.0 5.0 0.21 0.72 0.72 96
20260903024304 66 154 0.0 9.0 0.26 0.70 0.70 96
20260903023759 66 76 2.0 6.0 0.26 0.69 0.69 96
20260903023254 66 42 2.0 9.0 0.24 0.66 0.66 96
20260903022749 65 152 3.0 7.0 0.21 0.64 0.64 96
20260903022248 64 240 2.0 5.0 0.14 0.61 0.61 96
20260903021747 64 143 2.0 5.0 0.14 0.60 0.60 96
20260903021243 64 224 5.0 8.0 0.14 0.59 0.59 96
20260903020743 64 29 0.0 4.0 0.73 0.58 0.58 96
20260903020237 65 248 8.0 16.0 1.72 0.52 0.52 96
20260903015733 65 269 4.0 15.0 1.37 0.46 0.46 96
20260903015228 67 303 0.0 10.0 0.28 0.28 0.28 96
20260903014723 68 356 3.0 5.0 0.00 0.23 0.23 96
20260903014223 68 223 1.0 4.0 0.00 0.23 0.23 96
20260903013718 68 234 2.0 5.0 0.00 0.23 0.23 96
20260903013217 68 246 2.0 6.0 0.02 0.23 0.23 96
20260903012716 68 190 2.0 4.0 0.07 0.23 0.23 96
20260903012216 68 148 2.0 6.0 0.07 0.22 0.22 96
20260903011710 68 148 2.0 5.0 0.02 0.22 0.22 96
20260903011204 68 247 2.0 5.0 0.00 0.21 0.21 96
20260903010700 68 133 3.0 6.0 0.00 0.21 0.21 96
20260903010159 68 187 1.0 4.0 0.00 0.21 0.21 96
20260903005658 68 238 3.0 4.0 0.00 0.21 0.21 96
20260903005154 68 176 2.0 5.0 0.00 0.21 0.21 96
20260903004649 68 197 2.0 8.0 0.05 0.21 0.21 96
20260903004144 69 213 2.0 3.0 0.07 0.21 0.21 96
20260903003640 69 138 3.0 7.0 0.02 0.20 0.20 96
20260903003135 69 53 2.0 5.0 0.00 0.20 0.20 96
20260903002630 69 153 4.0 6.0 0.00 0.20 0.20 96
20260903002124 69 217 4.0 6.0 0.00 0.20 0.20 96
20260903001619 69 135 0.0 8.0 0.00 0.20 0.20 96
20260903001113 69 248 1.0 3.0 0.00 0.20 0.20 96
20260903000609 69 236 2.0 4.0 0.00 0.20 0.20 96
20260903000108 69 253 0.0 6.0 0.00 0.20 0.20 96
20260902235607 69 199 3.0 7.0 0.00 0.20 0.20 96
20260902235102 69 231 3.0 6.0 0.00 0.20 0.20 96
20260902234556 69 206 2.0 5.0 0.00 0.20 0.20 96
20260902234055 69 137 3.0 6.0 0.00 0.20 0.20 96
20260902233550 69 153 2.0 5.0 0.00 0.20 0.20 96
20260902233044 69 231 0.0 4.0 0.00 0.20 0.20 96
20260902232544 69 251 1.0 3.0 0.00 0.20 0.20 96
20260902232038 69 235 0.0 3.0 0.00 0.20 0.20 96
20260902231533 69 199 1.0 4.0 0.00 0.20 0.20 96
20260902231032 69 306 0.0 4.0 0.00 0.20 0.20 96
20260902230527 69 227 3.0 4.0 0.00 0.20 0.20 96
20260902230027 69 175 1.0 4.0 0.00 0.20 0.20 96
20260902225522 69 76 0.0 4.0 0.00 0.20 0.20 96
20260902225021 69 171 3.0 4.0 0.00 0.20 0.20 96
20260902224520 70 147 2.0 5.0 0.00 0.20 0.20 96
20260902224017 70 252 2.0 6.0 0.00 0.20 0.20 96
20260902223512 70 128 4.0 5.0 0.00 0.20 0.20 96
20260902223006 70 191 0.0 6.0 0.00 0.20 0.20 96
20260902222505 70 222 2.0 7.0 0.00 0.20 0.20 96
20260902222004 70 224 0.0 5.0 0.00 0.20 0.20 96
20260902221503 70 201 3.0 5.0 0.00 0.20 0.20 96
20260902220954 70 235 1.0 6.0 0.00 0.20 0.20 96
20260902220454 70 256 3.0 5.0 0.00 0.20 0.20 96
20260902215948 70 155 1.0 3.0 0.00 0.20 0.20 96
20260902215444 70 231 2.0 4.0 0.00 0.20 0.20 96
20260902214940 70 209 3.0 5.0 0.00 0.20 0.20 96
20260902214438 70 104 3.0 6.0 0.00 0.20 0.20 96
20260902213933 70 125 2.0 5.0 0.00 0.20 0.20 96
20260902213429 70 103 3.0 4.0 0.00 0.20 0.20 96
20260902212928 70 118 1.0 3.0 0.00 0.20 0.20 96
20260902212424 70 191 1.0 3.0 0.00 0.20 0.20 96
20260902211920 70 230 0.0 2.0 0.00 0.20 0.20 96
20260902211416 70 171 1.0 3.0 0.00 0.20 0.20 96
20260902210911 70 224 2.0 3.0 0.00 0.20 0.20 96
20260902210410 70 304 2.0 5.0 0.00 0.20 0.20 96
20260902205909 70 189 0.0 5.0 0.00 0.20 0.20 96
20260902205404 70 289 2.0 3.0 0.00 0.20 0.20 96
20260902204900 70 213 2.0 4.0 0.00 0.20 0.20 96
20260902204359 70 169 1.0 6.0 0.00 0.20 0.20 96
20260902203855 70 202 3.0 8.0 0.00 0.20 0.20 96
20260902203350 70 246 1.0 4.0 0.00 0.20 0.20 96
20260902202844 70 110 0.0 4.0 0.00 0.20 0.20 96
20260902202340 70 229 0.0 3.0 0.00 0.20 0.20 96
20260902201837 69 162 1.0 3.0 0.00 0.20 0.20 96
20260902201336 69 225 0.0 4.0 0.00 0.20 0.20 96
20260902200832 69 237 2.0 5.0 0.00 0.20 0.20 96
20260902200326 69 336 0.0 9.0 0.00 0.20 0.20 96
20260902195822 69 169 2.0 5.0 0.00 0.20 0.20 96
20260902195321 69 251 2.0 3.0 0.00 0.20 0.20 96
20260902194816 69 80 0.0 6.0 0.00 0.20 0.20 96
20260902194311 69 160 1.0 3.0 0.00 0.20 0.20 96
20260902193807 69 333 0.0 2.0 0.00 0.20 0.20 96
20260902193302 69 222 3.0 3.0 0.00 0.20 0.20 96
20260902192801 69 13 0.0 5.0 0.00 0.20 0.20 96
20260902192300 69 221 2.0 6.0 0.00 0.20 0.20 96
20260902191759 69 186 1.0 4.0 0.00 0.20 0.20 96
20260902191255 69 216 0.0 4.0 0.00 0.20 0.20 96
20260902190750 69 149 0.0 5.0 0.00 0.20 0.20 96
20260902190249 68 139 0.0 5.0 0.00 0.20 0.20 96
20260902185745 68 259 0.0 3.0 0.00 0.20 0.20 96
20260902185241 68 141 2.0 3.0 0.00 0.20 0.20 96
20260902184737 68 260 2.0 3.0 0.00 0.20 0.20 96
20260902184232 68 119 1.0 4.0 0.00 0.20 0.20 96
20260902183727 68 288 3.0 3.0 0.00 0.20 0.20 96
20260902183224 68 144 3.0 7.0 0.00 0.20 0.20 96
20260902182720 68 241 0.0 3.0 0.00 0.20 0.20 96
20260902182216 68 0 0.0 4.0 0.00 0.20 0.20 96
20260902181712 68 234 2.0 5.0 0.00 0.20 0.20 96
20260902181211 68 219 2.0 5.0 0.00 0.20 0.20 96
20260902180706 68 164 4.0 9.0 0.00 0.20 0.20 96
20260902180201 68 352 0.0 8.0 0.00 0.20 0.20 96
20260902175702 68 244 0.0 4.0 0.00 0.20 0.20 96
20260902175158 68 314 2.0 3.0 0.00 0.20 0.20 96
20260902174654 67 269 0.0 5.0 0.00 0.20 0.20 96
20260902174149 67 236 2.0 7.0 0.00 0.20 0.20 96
20260902173644 67 101 2.0 7.0 0.00 0.20 0.20 96
20260902173139 67 228 3.0 6.0 0.00 0.20 0.20 96
20260902172633 67 227 1.0 4.0 0.00 0.20 0.20 96
20260902172132 67 205 1.0 9.0 0.00 0.20 0.20 96
20260902171628 67 295 2.0 4.0 0.00 0.20 0.20 96
20260902171124 68 202 1.0 5.0 0.00 0.20 0.20 96
20260902170620 67 209 2.0 5.0 0.00 0.20 0.20 96
20260902170115 68 24 3.0 8.0 0.00 0.20 0.20 96
20260902165614 68 352 1.0 5.0 0.00 0.20 0.20 96
20260902165109 68 282 2.0 5.0 0.00 0.20 0.20 96
20260902164605 68 176 2.0 3.0 0.00 0.20 0.20 96
20260902164103 68 187 2.0 5.0 0.00 0.20 0.20 96
20260902163559 68 237 0.0 3.0 0.00 0.20 0.20 96
20260902163057 68 269 0.0 2.0 0.00 0.20 0.20 96
20260902162551 69 89 0.0 5.0 0.00 0.20 0.20 96
20260902162047 69 269 0.0 3.0 0.00 0.20 0.20 96
20260902161547 69 322 0.0 3.0 0.00 0.20 0.20 96
20260902161043 69 151 0.0 2.0 0.00 0.20 0.20 96
20260902160538 69 219 0.0 2.0 0.00 0.20 0.20 96
20260902160033 69 84 0.0 3.0 0.00 0.20 0.20 96
20260902155527 69 197 3.0 4.0 0.05 0.20 0.20 96
20260902155026 69 153 1.0 3.0 0.07 0.20 0.20 96
20260902154521 69 130 1.0 5.0 0.09 0.20 0.20 96
20260902154016 69 221 1.0 4.0 0.07 0.19 0.19 96
20260902153514 69 22 0.0 3.0 0.05 0.18 0.18 96
20260902153010 69 89 0.0 3.0 0.05 0.18 0.18 96
20260902152506 69 141 2.0 4.0 0.12 0.17 0.17 96
20260902152001 69 129 0.0 6.0 0.09 0.17 0.17 96
20260902151457 69 136 2.0 2.0 0.05 0.15 0.15 96
20260902150956 69 250 2.0 3.0 0.07 0.15 0.15 96
20260902150453 69 229 3.0 3.0 0.07 0.15 0.15 96
20260902145952 69 137 1.0 3.0 0.02 0.14 0.14 96
20260902145447 69 243 4.0 5.0 0.02 0.13 0.13 96
20260902144942 69 216 3.0 3.0 0.02 0.13 0.13 96
20260902144438 69 209 0.0 2.0 0.07 0.13 0.13 96
20260902143938 69 234 0.0 3.0 0.31 0.13 0.13 96
20260902143433 69 310 0.0 1.0 0.33 0.10 0.10 96
20260902142928 69 124 0.0 2.0 0.26 0.07 0.07 96
20260902142425 69 227 2.0 3.0 0.17 0.05 0.05 96
20260902141920 69 235 2.0 3.0 0.14 0.03 0.03 96
20260902141415 69 129 0.0 2.0 0.05 0.01 0.01 96
20260902140914 69 246 2.0 3.0 0.00 0.00 0.00 96
20260902140410 69 246 4.0 5.0 0.00 0.00 0.00 96
20260902135904 69 196 1.0 5.0 0.00 0.00 0.00 96